EW2337 Weather Reports


Display with metric or nautical units.
time (UTC)temp
F
wind
direction
speed
MPH
gust
MPH
rain 1hr
in
rain 24hr
in
rain mn
in
humidity
%
barometer
mb
20260507214503 68 248 1.0 7.0 0.00 0.07 0.07 36 1010.2
20260507214003 69 251 0.0 3.0 0.00 0.07 0.07 37 1010.2
20260507213503 68 255 1.0 6.0 0.00 0.07 0.07 39 1010.3
20260507213003 68 252 2.0 8.0 0.00 0.07 0.07 39 1010.3
20260507212503 67 251 2.0 8.0 0.00 0.07 0.07 36 1010.4
20260507212003 67 249 1.0 7.0 0.00 0.07 0.07 38 1010.4
20260507211503 67 249 2.0 7.0 0.00 0.07 0.07 36 1010.2
20260507211024 67 246 1.0 4.0 0.00 0.07 0.07 40 1010.1
20260507210524 68 231 2.0 6.0 0.00 0.07 0.07 37 1010.1
20260507210003 67 232 4.0 11.0 0.00 0.07 0.07 38 1010.2
20260507205503 66 238 4.0 11.0 0.00 0.07 0.07 38 1010.2
20260507205003 67 246 3.0 8.0 0.00 0.07 0.07 37 1010.0
20260507204503 68 250 2.0 8.0 0.00 0.07 0.07 37 1009.9
20260507204024 68 246 3.0 9.0 0.00 0.07 0.07 36 1010.0
20260507203503 66 246 2.0 9.0 0.00 0.07 0.07 39 1010.0
20260507203003 67 248 2.0 7.0 0.00 0.07 0.07 39 1010.0
20260507202503 68 246 2.0 7.0 0.00 0.07 0.07 38 1009.8
20260507202003 67 247 3.0 9.0 0.00 0.07 0.07 37 1009.9
20260507201524 67 247 3.0 10.0 0.00 0.07 0.07 39 1010.0
20260507201003 67 250 3.0 10.0 0.00 0.07 0.07 39 1010.0
20260507200503 67 251 2.0 7.0 0.00 0.07 0.07 39 1010.1
20260507200003 66 247 1.0 8.0 0.00 0.07 0.07 42 1010.2
20260507195503 67 240 1.0 8.0 0.00 0.07 0.07 40 1010.2
20260507195003 66 226 1.0 4.0 0.00 0.07 0.07 39 1010.2
20260507194503 65 229 1.0 4.0 0.00 0.07 0.07 49 1010.2
20260507194003 65 276 1.0 3.0 0.00 0.07 0.07 42 1010.2
20260507193503 64 263 1.0 8.0 0.00 0.07 0.07 49 1010.6
20260507193003 65 244 2.0 8.0 0.00 0.07 0.07 48 1010.6
20260507192503 67 249 2.0 4.0 0.00 0.07 0.07 42 1010.5
20260507192024 67 252 2.0 4.0 0.00 0.07 0.07 41 1010.5
20260507191524 67 253 1.0 4.0 0.00 0.07 0.07 44 1010.8
20260507191024 65 261 0.0 2.0 0.00 0.07 0.07 44 1010.7
20260507190503 65 260 1.0 4.0 0.00 0.07 0.07 49 1010.9
20260507190004 65 264 1.0 4.0 0.00 0.07 0.07 43 1010.9
20260507185503 65 257 1.0 4.0 0.00 0.07 0.07 47 1011.1
20260507185003 67 250 2.0 8.0 0.00 0.07 0.07 47 1010.9
20260507184503 66 248 3.0 8.0 0.00 0.07 0.07 44 1011.1
20260507184003 67 244 2.0 6.0 0.00 0.07 0.07 43 1011.2
20260507183503 66 255 1.0 4.0 0.00 0.07 0.07 43 1011.5
20260507183003 65 246 1.0 4.0 0.00 0.07 0.07 42 1011.4
20260507182503 65 235 2.0 7.0 0.00 0.07 0.07 46 1011.3
20260507182003 65 244 2.0 7.0 0.00 0.07 0.07 44 1011.3
20260507181524 64 242 2.0 8.0 0.00 0.07 0.07 44 1011.1
20260507181024 65 251 2.0 8.0 0.00 0.07 0.07 45 1011.3
20260507180503 65 256 1.0 8.0 0.00 0.07 0.07 48 1011.1
20260507180024 64 283 1.0 8.0 0.00 0.07 0.07 47 1011.4
20260507175503 62 37 1.0 3.0 0.00 0.07 0.07 54 1011.6
20260507175003 62 68 1.0 4.0 0.00 0.07 0.07 50 1011.5
20260507174503 63 94 1.0 4.0 0.00 0.07 0.07 47 1011.6
20260507174003 64 278 1.0 2.0 0.00 0.07 0.07 49 1012.0
20260507173503 63 206 1.0 7.0 0.00 0.07 0.07 49 1011.9
20260507173003 63 224 2.0 7.0 0.00 0.07 0.07 45 1011.9
20260507172503 65 269 1.0 4.0 0.00 0.07 0.07 49 1011.9
20260507172003 65 257 0.0 1.0 0.00 0.07 0.07 47 1012.1
20260507171503 63 228 1.0 4.0 0.00 0.07 0.07 50 1012.3
20260507171003 63 219 1.0 4.0 0.00 0.07 0.07 49 1012.5
20260507170503 63 357 1.0 4.0 0.00 0.07 0.07 47 1012.3
20260507170003 63 273 1.0 3.0 0.00 0.07 0.07 48 1012.6
20260507165503 63 250 1.0 6.0 0.00 0.07 0.07 45 1012.5
20260507165003 63 253 1.0 6.0 0.00 0.07 0.07 54 1012.5
20260507164503 63 8 1.0 6.0 0.00 0.07 0.07 50 1012.7
20260507164024 61 17 1.0 6.0 0.00 0.07 0.07 49 1012.9
20260507163503 61 248 1.0 4.0 0.00 0.07 0.07 58 1012.6
20260507163003 62 243 1.0 4.0 0.00 0.07 0.07 54 1012.8
20260507162524 60 55 1.0 3.0 0.00 0.07 0.07 54 1013.0
20260507162003 60 25 0.0 2.0 0.00 0.07 0.07 58 1013.0
20260507161913 60 277 1.0 2.0 0.00 0.07 0.07 57 1012.3
20260507161503 59 261 1.0 6.0 0.00 0.08 0.07 56 1013.1
20260507161408 60 277 1.0 2.0 0.00 0.07 0.07 57 1012.3
20260507161003 60 244 1.0 6.0 0.00 0.08 0.07 56 1013.1
20260507160906 60 238 0.0 1.0 0.00 0.07 0.07 57 1012.4
20260507160503 59 242 1.0 6.0 0.00 0.09 0.07 57 1013.3
20260507160401 59 246 0.0 5.0 0.00 0.07 0.07 57 1012.3
20260507160003 58 256 0.0 4.0 0.00 0.09 0.07 59 1013.3
20260507155858 58 242 0.0 1.0 0.00 0.07 0.07 62 1012.3
20260507155503 58 32 0.0 3.0 0.00 0.09 0.07 63 1013.2
20260507155353 57 274 0.0 0.0 0.00 0.07 0.07 62 1012.6
20260507155003 59 344 1.0 4.0 0.00 0.09 0.07 59 1013.4
20260507154850 60 48 1.0 3.0 0.00 0.07 0.07 60 1012.5
20260507154503 59 318 1.0 4.0 0.00 0.10 0.07 60 1013.5
20260507154348 59 251 1.0 2.0 0.00 0.07 0.07 63 1012.4
20260507154003 59 360 0.0 2.0 0.00 0.10 0.07 65 1013.6
20260507153845 59 50 1.0 2.0 0.00 0.07 0.07 64 1012.6
20260507153504 59 49 0.0 2.0 0.00 0.11 0.07 62 1013.5
20260507153341 59 317 0.0 2.0 0.00 0.07 0.07 64 1012.8
20260507153024 58 259 1.0 6.0 0.00 0.11 0.07 63 1013.5
20260507152838 59 77 0.0 2.0 0.00 0.07 0.07 64 1012.6
20260507152503 59 247 1.0 6.0 0.00 0.12 0.07 60 1013.4
20260507152334 59 248 0.0 1.0 0.00 0.07 0.07 63 1012.9
20260507152004 58 258 0.0 2.0 0.00 0.12 0.07 64 1013.7
20260507151830 58 37 1.0 2.0 0.00 0.07 0.07 65 1012.9
20260507151503 58 246 1.0 3.0 0.00 0.12 0.07 62 1013.8
20260507151326 57 199 0.0 1.0 0.00 0.07 0.07 66 1013.1
20260507151003 58 251 1.0 3.0 0.00 0.13 0.07 67 1013.8
20260507150824 57 236 0.0 3.0 0.00 0.07 0.07 64 1012.8
20260507150503 57 354 0.0 2.0 0.00 0.13 0.07 65 1014.1
20260507150320 57 88 2.0 2.0 0.00 0.07 0.07 65 1013.0
20260507150024 57 291 0.0 4.0 0.00 0.13 0.07 65 1014.2
20260507145816 57 282 0.0 1.0 0.00 0.07 0.07 65 1013.5
20260507145503 57 275 1.0 4.0 0.00 0.13 0.07 65 1013.9
20260507145313 56 239 1.0 5.0 0.00 0.07 0.07 63 1013.0
20260507145003 56 274 1.0 3.0 0.00 0.13 0.07 65 1014.1
20260507144810 57 258 0.0 3.0 0.00 0.07 0.07 67 1013.2
20260507144503 57 252 1.0 6.0 0.00 0.13 0.07 66 1014.2
20260507144308 57 275 1.0 2.0 0.00 0.07 0.07 69 1013.3
20260507144003 57 248 1.0 6.0 0.00 0.13 0.07 67 1014.2
20260507143804 57 235 4.0 6.0 0.00 0.07 0.07 64 1013.3
20260507143503 57 251 1.0 3.0 0.00 0.13 0.07 66 1014.2
20260507143301 57 213 1.0 1.0 0.00 0.07 0.07 67 1013.5
20260507143003 57 245 1.0 4.0 0.00 0.13 0.07 67 1014.1
20260507142757 57 263 0.0 1.0 0.00 0.07 0.07 69 1013.5
20260507142503 57 248 1.0 6.0 0.00 0.13 0.07 71 1014.3
20260507142254 57 259 1.0 5.0 0.00 0.07 0.07 68 1013.4
20260507142003 56 251 2.0 6.0 0.00 0.13 0.07 71 1014.2
20260507141750 56 250 3.0 6.0 0.00 0.07 0.07 68 1013.4
20260507141503 56 250 2.0 6.0 0.00 0.13 0.07 69 1014.2
20260507141248 56 247 4.0 6.0 0.00 0.07 0.07 69 1013.3
20260507141003 56 251 1.0 6.0 0.00 0.13 0.07 69 1014.2
20260507140743 56 214 0.0 1.0 0.00 0.07 0.07 70 1013.5
20260507140503 56 246 1.0 6.0 0.00 0.13 0.07 69 1014.2
20260507140241 56 151 1.0 1.0 0.00 0.07 0.07 71 1013.3
20260507140004 56 245 1.0 6.0 0.00 0.13 0.07 70 1014.4
20260507135738 55 278 1.0 2.0 0.00 0.07 0.07 71 1013.7
20260507135503 55 252 1.0 4.0 0.00 0.13 0.07 72 1014.3
20260507135235 55 243 0.0 1.0 0.00 0.07 0.07 74 1013.5
20260507135003 55 247 1.0 3.0 0.00 0.13 0.07 72 1014.4
20260507134731 55 307 0.0 1.0 0.00 0.07 0.07 75 1013.6
20260507134503 55 245 1.0 7.0 0.00 0.13 0.07 73 1014.7
20260507134228 55 225 0.0 2.0 0.00 0.07 0.07 72 1013.6
20260507134003 54 249 2.0 7.0 0.00 0.13 0.07 72 1014.6
20260507133724 55 300 1.0 7.0 0.00 0.07 0.07 72 1013.7
20260507133503 54 248 2.0 6.0 0.00 0.13 0.07 74 1014.6
20260507133221 55 243 3.0 5.0 0.00 0.07 0.07 76 1013.4
20260507133024 54 248 1.0 6.0 0.00 0.13 0.07 78 1014.8
20260507132718 55 233 0.0 5.0 0.00 0.07 0.07 80 1013.5
20260507132503 55 244 1.0 4.0 0.00 0.13 0.07 81 1014.5
20260507132215 55 254 0.0 2.0 0.00 0.07 0.07 81 1013.5
20260507132026 54 242 0.0 3.0 0.00 0.13 0.07 82 1014.4
20260507131712 55 250 0.0 1.0 0.00 0.07 0.07 82 1013.7
20260507131503 54 252 1.0 4.0 0.00 0.13 0.07 81 1014.3
20260507131209 54 253 0.0 1.0 0.00 0.07 0.07 82 1013.5
20260507131024 54 257 2.0 4.0 0.00 0.13 0.07 81 1014.3
20260507130706 53 297 2.0 3.0 0.00 0.07 0.07 82 1013.5
20260507130504 53 259 2.0 4.0 0.00 0.13 0.07 82 1014.3
20260507130203 53 276 3.0 5.0 0.00 0.07 0.07 83 1013.7
20260507130003 53 258 1.0 8.0 0.00 0.13 0.07 83 1014.6
20260507125702 53 277 3.0 5.0 0.00 0.07 0.07 84 1013.4
20260507125503 53 256 1.0 8.0 0.00 0.13 0.07 85 1014.7
20260507125159 53 248 0.0 3.0 0.00 0.07 0.07 86 1013.6
20260507125004 53 249 1.0 6.0 0.00 0.13 0.07 86 1014.6
20260507124655 53 249 4.0 6.0 0.00 0.07 0.07 86 1013.6
20260507124504 53 250 1.0 6.0 0.00 0.13 0.07 87 1014.5
20260507124153 53 247 1.0 3.0 0.00 0.07 0.07 88 1013.6
20260507124025 53 250 2.0 6.0 0.00 0.13 0.07 88 1014.5
20260507123651 53 244 2.0 2.0 0.00 0.07 0.07 88 1013.6
20260507123503 53 249 1.0 6.0 0.00 0.13 0.07 89 1014.4
20260507123143 53 258 1.0 2.0 0.00 0.07 0.07 89 1013.4
20260507123003 52 247 1.0 4.0 0.00 0.13 0.07 89 1014.3
20260507122638 52 243 1.0 3.0 0.00 0.07 0.07 90 1013.5
20260507122504 52 248 1.0 4.0 0.00 0.13 0.07 90 1014.5
20260507122134 52 256 1.0 2.0 0.00 0.07 0.07 90 1013.5
20260507122024 52 253 0.0 2.0 0.00 0.13 0.07 90 1014.2
20260507121630 52 248 0.0 0.0 0.00 0.07 0.07 90 1013.6
20260507121504 52 247 0.0 3.0 0.00 0.13 0.07 90 1014.2
20260507121126 52 251 0.0 2.0 0.00 0.07 0.07 90 1013.6
20260507121003 52 247 1.0 3.0 0.00 0.13 0.07 90 1014.4
20260507120622 52 247 0.0 1.0 0.00 0.07 0.07 90 1013.3
20260507120503 52 250 0.0 1.0 0.00 0.13 0.07 90 1014.3
20260507120118 52 265 0.0 0.0 0.00 0.07 0.07 90 1013.1
20260507120024 52 247 0.0 1.0 0.00 0.13 0.07 90 1014.0
20260507115615 52 251 0.0 1.0 0.00 0.07 0.07 90 1013.3
20260507115503 52 248 0.0 2.0 0.00 0.13 0.07 90 1014.0
20260507115110 52 241 0.0 2.0 0.00 0.07 0.07 90 1013.3
20260507115003 52 252 0.0 2.0 0.00 0.13 0.07 90 1014.3
20260507114606 52 254 0.0 0.0 0.00 0.07 0.07 90 1013.0
20260507114504 52 254 0.0 1.0 0.00 0.13 0.07 90 1013.9
20260507114104 52 252 0.0 0.0 0.00 0.07 0.07 91 1013.1
20260507114003 52 248 0.0 2.0 0.00 0.13 0.07 91 1013.9
20260507113600 52 254 0.0 1.0 0.00 0.07 0.07 91 1013.4
20260507113504 52 247 1.0 2.0 0.00 0.13 0.07 91 1014.1
20260507113058 52 243 1.0 2.0 0.00 0.07 0.07 91 1013.3
20260507113004 52 246 1.0 2.0 0.00 0.13 0.07 91 1014.1
20260507112556 52 248 2.0 2.0 0.00 0.07 0.07 91 1013.2
20260507112503 52 247 1.0 2.0 0.00 0.13 0.07 91 1014.0
20260507112052 52 259 1.0 2.0 0.00 0.07 0.07 91 1013.1
20260507112024 52 247 1.0 2.0 0.00 0.13 0.07 91 1014.0
20260507111549 52 261 0.0 2.0 0.00 0.07 0.07 91 1013.2
20260507111503 52 245 1.0 4.0 0.00 0.13 0.07 91 1013.9
20260507111046 52 237 1.0 2.0 0.00 0.07 0.07 91 1013.1
20260507111003 52 245 1.0 4.0 0.00 0.13 0.07 91 1014.0
20260507110542 52 237 2.0 2.0 0.00 0.07 0.07 91 1013.1
20260507110503 52 242 1.0 2.0 0.00 0.13 0.07 91 1013.9
20260507110039 52 246 1.0 2.0 0.00 0.07 0.07 91 1012.8
20260507110003 52 250 0.0 2.0 0.00 0.13 0.07 91 1013.9
20260507105536 52 255 0.0 2.0 0.00 0.07 0.07 91 1013.0
20260507105524 52 251 0.0 2.0 0.00 0.13 0.07 91 1013.7
20260507105032 52 253 0.0 2.0 0.00 0.07 0.07 91 1012.8
20260507105024 52 249 0.0 2.0 0.00 0.13 0.07 91 1013.7
20260507104530 51 253 0.0 0.0 0.00 0.07 0.07 91 1012.8
20260507104503 51 251 0.0 2.0 0.00 0.13 0.07 91 1013.7
20260507104026 51 241 0.0 0.0 0.00 0.07 0.07 91 1012.6
20260507104003 51 255 0.0 1.0 0.00 0.13 0.07 91 1013.4
20260507103524 51 0 0.0 0.0 0.00 0.13 0.07 91 1013.5
20260507103522 51 253 0.0 0.0 0.00 0.07 0.07 91 1012.5
20260507103019 51 260 0.0 0.0 0.00 0.07 0.07 91 1012.5
20260507103003 51 0 0.0 0.0 0.00 0.13 0.07 91 1013.3
20260507102515 51 251 0.0 0.0 0.00 0.07 0.07 91 1012.6
20260507102503 51 0 0.0 0.0 0.00 0.13 0.07 91 1013.4
20260507102011 51 252 0.0 0.0 0.00 0.07 0.07 91 1012.5
20260507102003 51 0 0.0 0.0 0.00 0.13 0.07 91 1013.4
20260507101524 51 0 0.0 0.0 0.00 0.13 0.07 91 1013.5
20260507101507 51 247 0.0 0.0 0.00 0.07 0.07 91 1012.5
20260507101004 51 253 0.0 0.0 0.00 0.07 0.07 91 1012.4
20260507100503 51 0 0.0 0.0 0.00 0.13 0.07 91 1013.0
20260507100501 51 252 0.0 0.0 0.00 0.07 0.07 91 1012.2
20260507100003 51 0 0.0 0.0 0.00 0.13 0.07 91 1013.0
20260507095959 51 251 0.0 0.0 0.00 0.07 0.07 91 1012.4
20260507095503 51 0 0.0 0.0 0.00 0.13 0.07 91 1013.2
20260507095457 51 247 0.0 0.0 0.00 0.07 0.07 91 1012.4
20260507095024 51 0 0.0 0.0 0.00 0.13 0.07 91 1013.5
20260507094953 51 248 0.0 0.0 0.00 0.07 0.07 91 1012.5
20260507094503 51 0 0.0 0.0 0.00 0.13 0.07 91 1013.3
20260507094449 51 260 0.0 0.0 0.00 0.07 0.07 91 1012.3
20260507094003 51 0 0.0 0.0 0.00 0.13 0.07 91 1013.3
20260507093947 51 245 0.0 0.0 0.00 0.07 0.07 91 1012.5
20260507093503 50 0 0.0 0.0 0.00 0.13 0.07 90 1013.0
20260507093444 50 252 0.0 0.0 0.00 0.07 0.07 90 1012.1
20260507093003 51 0 0.0 0.0 0.00 0.13 0.07 90 1012.9
20260507092943 51 251 0.0 0.0 0.00 0.07 0.07 90 1012.2
20260507092524 51 0 0.0 0.0 0.00 0.13 0.07 90 1013.0
20260507092438 51 266 0.0 0.0 0.00 0.07 0.07 90 1011.9
20260507092003 51 267 0.0 1.0 0.00 0.13 0.07 90 1012.8
20260507091935 51 320 0.0 0.0 0.00 0.07 0.07 90 1012.3
20260507091503 50 286 0.0 2.0 0.00 0.13 0.07 90 1013.0
20260507091432 50 252 0.0 0.0 0.00 0.07 0.07 90 1012.0
20260507091024 51 286 0.0 2.0 0.00 0.13 0.07 90 1013.0
20260507090928 51 272 0.0 0.0 0.00 0.07 0.07 90 1012.2
20260507090503 51 343 0.0 1.0 0.00 0.13 0.07 90 1012.9
20260507090424 51 258 0.0 0.0 0.00 0.07 0.07 90 1011.8
20260507090004 51 327 0.0 1.0 0.00 0.13 0.07 90 1012.5
20260507085921 51 247 0.0 0.0 0.00 0.07 0.07 90 1011.7
20260507085503 51 323 0.0 1.0 0.00 0.13 0.07 90 1012.6
20260507085418 51 322 0.0 1.0 0.00 0.07 0.07 90 1011.7
20260507085003 51 0 0.0 0.0 0.00 0.13 0.07 90 1012.4
20260507084915 51 246 0.0 0.0 0.00 0.07 0.07 90 1011.6
20260507084503 51 0 0.0 0.0 0.00 0.13 0.07 90 1012.3
20260507084411 51 278 0.0 0.0 0.00 0.07 0.07 90 1011.9
20260507084003 51 0 0.0 0.0 0.00 0.13 0.07 90 1012.5
20260507083909 51 268 0.0 0.0 0.00 0.07 0.07 90 1011.7
20260507083503 51 303 0.0 2.0 0.00 0.13 0.07 90 1012.5
20260507083405 51 253 0.0 0.0 0.00 0.07 0.07 90 1011.8
20260507083003 51 286 0.0 2.0 0.00 0.13 0.07 90 1012.6
20260507082901 51 297 0.0 2.0 0.00 0.07 0.07 90 1011.4
20260507082503 51 231 0.0 1.0 0.00 0.13 0.07 90 1012.5
20260507082357 51 251 0.0 0.0 0.00 0.07 0.07 90 1011.6
20260507082003 51 267 0.0 1.0 0.00 0.13 0.07 90 1012.4
20260507081854 51 259 0.0 0.0 0.00 0.07 0.07 90 1011.6
20260507081503 51 254 0.0 1.0 0.00 0.13 0.07 90 1012.5
20260507081350 51 257 0.0 0.0 0.00 0.07 0.07 90 1011.6
20260507081003 51 251 0.0 1.0 0.00 0.13 0.07 90 1012.5
20260507080847 51 253 0.0 0.0 0.00 0.07 0.07 90 1011.7
20260507080524 51 254 0.0 1.0 0.00 0.13 0.07 90 1012.4
20260507080343 51 260 0.0 0.0 0.00 0.07 0.07 89 1011.7
20260507080004 51 262 0.0 1.0 0.00 0.13 0.07 89 1012.4
20260507075839 51 285 0.0 1.0 0.00 0.07 0.07 89 1011.7
20260507075503 51 219 0.0 2.0 0.00 0.13 0.07 89 1012.4
20260507075335 51 295 0.0 0.0 0.00 0.07 0.07 90 1011.6
20260507075003 51 211 0.0 2.0 0.00 0.13 0.07 90 1012.5
20260507074831 51 252 0.0 2.0 0.00 0.07 0.07 90 1011.8
20260507074503 51 255 0.0 2.0 0.00 0.13 0.07 90 1012.9
20260507074329 51 248 0.0 0.0 0.00 0.07 0.07 90 1011.9
20260507074024 51 311 0.0 4.0 0.00 0.13 0.07 90 1012.5
20260507073826 51 221 0.0 1.0 0.00 0.07 0.07 90 1011.6
20260507073503 51 333 0.0 4.0 0.00 0.13 0.07 90 1012.6
20260507073323 51 311 0.0 1.0 0.00 0.07 0.07 90 1011.4
20260507073003 51 264 0.0 2.0 0.00 0.13 0.07 91 1012.5
20260507072820 51 260 0.0 0.0 0.00 0.07 0.07 91 1012.0
20260507072503 51 249 0.0 3.0 0.00 0.13 0.07 91 1013.0
20260507072317 51 238 0.0 2.0 0.00 0.07 0.07 91 1011.9
20260507072003 52 247 1.0 6.0 0.00 0.13 0.07 91 1012.5
20260507071815 52 269 0.0 3.0 0.00 0.07 0.07 91 1011.8
20260507071503 52 262 0.0 6.0 0.00 0.13 0.07 91 1012.6
20260507071311 52 264 0.0 3.0 0.00 0.07 0.07 91 1011.7
20260507071003 53 257 0.0 2.0 0.00 0.13 0.07 91 1012.9
20260507070808 53 253 0.0 1.0 0.00 0.07 0.07 91 1012.0
20260507070503 53 250 0.0 2.0 0.00 0.13 0.07 91 1012.8
20260507070305 53 251 0.0 0.0 0.00 0.07 0.07 92 1012.2
20260507070006 53 34 0.0 1.0 0.01 0.13 0.07 92 1012.8
20260507065802 53 258 0.0 0.0 0.00 0.07 0.07 91 1011.8
20260507065524 53 325 0.0 1.0 0.01 0.13 0.07 92 1012.8
20260507065258 53 263 0.0 0.0 0.00 0.07 0.07 91 1012.1
20260507065003 53 281 0.0 1.0 0.01 0.13 0.07 91 1013.2
20260507064756 53 321 0.0 1.0 0.00 0.07 0.07 91 1012.2
20260507064503 54 255 1.0 3.0 0.01 0.13 0.07 91 1012.8
20260507064255 53 255 0.0 0.0 0.00 0.07 0.07 91 1012.2
20260507064003 53 254 1.0 3.0 0.01 0.13 0.07 91 1013.1
20260507063752 53 252 0.0 3.0 0.00 0.07 0.07 91 1012.2
20260507063503 54 248 0.0 2.0 0.01 0.13 0.07 91 1012.5
20260507063248 54 248 0.0 2.0 0.00 0.07 0.07 91 1011.8
20260507063003 53 253 0.0 1.0 0.02 0.13 0.07 91 1012.9
20260507062745 54 260 0.0 0.0 0.00 0.07 0.07 91 1011.7
20260507062503 54 253 0.0 1.0 0.02 0.13 0.07 91 1012.5
20260507062242 54 257 0.0 1.0 0.00 0.07 0.07 91 1011.5
20260507062003 54 246 0.0 2.0 0.07 0.13 0.07 91 1012.4
20260507061741 54 243 0.0 0.0 0.00 0.07 0.07 91 1011.3
20260507061503 54 250 1.0 4.0 0.07 0.13 0.07 91 1012.2
20260507061238 54 248 1.0 2.0 0.00 0.07 0.07 91 1011.5
20260507061024 54 257 1.0 6.0 0.07 0.13 0.07 91 1012.4
20260507060736 54 253 1.0 5.0 0.05 0.07 0.07 91 1011.8
20260507060503 54 259 1.0 6.0 0.07 0.13 0.07 91 1012.6
20260507060232 54 249 3.0 5.0 0.05 0.07 0.07 91 1011.7
20260507060003 55 252 1.0 4.0 0.06 0.12 0.06 91 1012.4
20260507055729 56 271 0.0 3.0 0.00 0.06 0.06 91 1011.6
20260507055503 56 258 1.0 3.0 0.06 0.12 0.06 91 1012.3
20260507055224 57 224 0.0 2.0 0.00 0.06 0.06 91 1012.2
20260507055003 57 259 1.0 4.0 0.06 0.12 0.06 91 1012.9
20260507054720 57 250 0.0 3.0 0.00 0.06 0.06 91 1012.0
20260507054503 57 259 0.0 4.0 0.06 0.12 0.06 91 1012.6
20260507054218 57 258 0.0 0.0 0.07 0.06 0.06 91 1011.6
20260507054003 57 264 0.0 2.0 0.06 0.12 0.06 90 1012.3
20260507053715 57 287 0.0 0.0 0.07 0.06 0.06 90 1011.1
20260507053503 57 263 0.0 4.0 0.06 0.12 0.06 90 1012.5
20260507053213 58 276 0.0 2.0 0.05 0.05 0.05 90 1011.3
20260507053024 58 276 1.0 4.0 0.05 0.11 0.05 89 1012.3
20260507052712 59 251 0.0 5.0 0.28 0.05 0.05 88 1011.8
20260507052503 59 265 2.0 6.0 0.05 0.11 0.05 88 1012.6
20260507052207 59 45 1.0 3.0 0.17 0.03 0.03 86 1010.9
20260507052003 59 260 1.0 6.0 0.00 0.06 0.00 85 1013.0
20260507051705 59 259 4.0 6.0 0.00 0.00 0.00 85 1011.7
20260507051504 59 228 0.0 4.0 0.00 0.06 0.00 85 1011.6
20260507051202 60 282 0.0 2.0 0.00 0.00 0.00 84 1010.6
20260507051003 60 235 0.0 4.0 0.00 0.06 0.00 84 1011.5
20260507050659 60 257 0.0 0.0 0.00 0.00 0.00 84 1011.0
20260507050503 60 255 0.0 2.0 0.00 0.06 0.00 83 1011.7
20260507050156 60 256 0.0 0.0 0.00 0.00 0.00 83 1011.1
20260507050003 60 252 0.0 3.0 0.00 0.06 0.00 83 1011.5
20260507045653 60 247 0.0 1.0 0.00 0.00 0.00 82 1011.2
20260507045503 60 249 1.0 3.0 0.00 0.06 0.00 82 1011.7
20260507045149 60 255 1.0 3.0 0.00 0.00 0.00 82 1010.9
20260507045003 60 249 1.0 3.0 0.00 0.06 0.00 82 1011.4
20260507044646 60 254 1.0 2.0 0.00 0.00 0.00 83 1010.8
20260507044503 60 257 1.0 4.0 0.00 0.06 0.00 83 1011.9
20260507044142 60 252 0.0 2.0 0.00 0.00 0.00 84 1010.8
20260507044003 60 256 1.0 4.0 0.00 0.06 0.00 84 1011.6
20260507043638 61 125 0.0 1.0 0.00 0.00 0.00 86 1010.7
20260507043524 61 204 0.0 3.0 0.00 0.06 0.00 86 1011.3
20260507043136 62 257 0.0 3.0 0.00 0.00 0.00 86 1010.4
20260507043003 62 236 1.0 6.0 0.00 0.06 0.00 86 1011.1
20260507042632 62 253 0.0 1.0 0.00 0.00 0.00 85 1010.3
20260507042524 62 242 1.0 6.0 0.00 0.06 0.00 85 1011.0
20260507042127 62 273 0.0 2.0 0.00 0.00 0.00 85 1010.6
20260507042024 62 252 1.0 3.0 0.00 0.06 0.00 85 1011.2
20260507041624 62 226 0.0 1.0 0.00 0.00 0.00 85 1010.4
20260507041503 62 257 1.0 4.0 0.00 0.06 0.00 85 1011.2
20260507041121 62 254 1.0 3.0 0.00 0.00 0.00 84 1010.6
20260507041003 62 254 2.0 6.0 0.00 0.06 0.00 84 1011.2
20260507040618 62 241 2.0 5.0 0.00 0.00 0.00 84 1010.2
20260507040503 62 255 2.0 6.0 0.00 0.06 0.00 84 1011.1
20260507040114 62 255 1.0 5.0 0.00 0.00 0.00 84 1010.1
20260507040004 62 257 2.0 6.0 0.00 0.06 0.00 84 1011.0
20260507035610 62 255 1.0 3.0 0.00 0.06 0.06 84 1010.3
20260507035503 62 255 2.0 6.0 0.00 0.06 0.06 84 1011.0
20260507035107 63 256 1.0 2.0 0.00 0.06 0.06 83 1010.4
20260507035003 63 252 2.0 4.0 0.00 0.06 0.06 83 1011.3
20260507034604 63 242 1.0 2.0 0.00 0.06 0.06 83 1010.4
20260507034503 63 255 2.0 4.0 0.00 0.06 0.06 83 1011.1
20260507034102 63 247 2.0 5.0 0.00 0.06 0.06 82 1010.4
20260507034003 63 254 2.0 4.0 0.00 0.06 0.06 82 1011.2
20260507033559 63 265 3.0 5.0 0.00 0.06 0.06 81 1010.2
20260507033503 63 251 1.0 6.0 0.00 0.06 0.06 81 1011.1
20260507033056 64 269 1.0 6.0 0.00 0.06 0.06 81 1010.4
20260507033003 64 249 1.0 7.0 0.00 0.06 0.06 81 1011.4
20260507032553 64 262 1.0 3.0 0.00 0.06 0.06 81 1010.6
20260507032503 64 251 1.0 7.0 0.00 0.06 0.06 81 1011.3
20260507032049 64 267 0.0 0.0 0.00 0.06 0.06 81 1010.5
20260507032003 64 266 2.0 7.0 0.00 0.06 0.06 81 1011.4
20260507031546 64 258 4.0 5.0 0.00 0.06 0.06 80 1010.3
20260507031524 64 261 2.0 7.0 0.00 0.06 0.06 80 1011.4
20260507031043 64 282 4.0 7.0 0.00 0.06 0.06 80 1010.6
20260507031003 64 253 2.0 7.0 0.00 0.06 0.06 80 1011.1
20260507030539 64 232 1.0 5.0 0.00 0.06 0.06 80 1009.9
20260507030503 64 255 2.0 7.0 0.00 0.06 0.06 80 1010.8
20260507030037 64 251 3.0 3.0 0.00 0.06 0.06 80 1010.1
20260507030003 64 257 2.0 11.0 0.00 0.06 0.06 80 1010.7
20260507025534 64 248 1.0 6.0 0.00 0.06 0.06 80 1010.1
20260507025503 64 252 2.0 11.0 0.00 0.06 0.06 80 1010.9
20260507025032 65 244 1.0 3.0 0.00 0.06 0.06 83 1009.8
20260507025003 65 252 2.0 10.0 0.00 0.06 0.06 83 1010.8
20260507024529 66 262 2.0 5.0 0.00 0.06 0.06 84 1010.1
20260507024502 66 261 1.0 8.0 0.00 0.06 0.06 84 1011.0
20260507024026 66 253 1.0 2.0 0.00 0.06 0.06 85 1010.5
20260507024003 66 251 1.0 6.0 0.00 0.06 0.06 85 1011.1
20260507023521 66 250 1.0 6.0 0.00 0.06 0.06 85 1010.3
20260507023503 66 251 1.0 6.0 0.00 0.06 0.06 85 1011.3
20260507023023 66 245 1.0 6.0 0.00 0.06 0.06 85 1010.9
20260507023020 66 260 0.0 1.0 0.00 0.06 0.06 85 1010.1
20260507022516 66 237 2.0 6.0 0.00 0.06 0.06 84 1009.8
20260507022503 66 244 2.0 6.0 0.00 0.06 0.06 84 1010.6
20260507022011 66 256 1.0 5.0 0.00 0.06 0.06 84 1009.9
20260507022003 66 247 1.0 4.0 0.00 0.06 0.06 84 1011.1
20260507021508 67 250 1.0 2.0 0.00 0.06 0.06 84 1010.1
20260507021503 67 244 1.0 3.0 0.00 0.06 0.06 84 1010.5
20260507021004 67 237 1.0 2.0 0.00 0.06 0.06 84 1009.7
20260507020503 67 240 1.0 4.0 0.00 0.06 0.06 83 1010.6
20260507020003 67 244 1.0 6.0 0.00 0.06 0.06 83 1010.8
20260507015958 67 233 1.0 2.0 0.00 0.06 0.06 83 1010.1
20260507015503 67 244 2.0 6.0 0.00 0.06 0.06 83 1011.1
20260507015457 67 251 0.0 6.0 0.00 0.06 0.06 83 1010.2
20260507015003 67 241 1.0 6.0 0.00 0.06 0.06 83 1011.1
20260507014954 67 255 1.0 7.0 0.00 0.06 0.06 83 1010.5
20260507014503 67 243 1.0 3.0 0.00 0.06 0.06 83 1011.0
20260507014450 67 245 1.0 3.0 0.00 0.06 0.06 83 1010.3
20260507014003 67 249 1.0 4.0 0.00 0.06 0.06 83 1011.1
20260507013946 67 246 1.0 2.0 0.00 0.06 0.06 83 1010.3
20260507013503 67 247 1.0 6.0 0.00 0.06 0.06 83 1010.9
20260507013443 67 245 2.0 5.0 0.00 0.06 0.06 83 1010.0
20260507013003 67 245 2.0 6.0 0.00 0.06 0.06 83 1010.8
20260507012941 67 249 1.0 6.0 0.00 0.06 0.06 83 1010.1
20260507012503 67 250 1.0 6.0 0.00 0.06 0.06 83 1010.8
20260507012438 67 255 3.0 6.0 0.00 0.06 0.06 83 1010.0
20260507012003 67 239 1.0 3.0 0.00 0.06 0.06 83 1010.9
20260507011934 67 250 1.0 2.0 0.00 0.06 0.06 83 1010.1
20260507011524 67 240 1.0 6.0 0.00 0.06 0.06 83 1010.7
20260507011432 67 267 1.0 2.0 0.00 0.06 0.06 83 1010.1
20260507011003 67 251 1.0 6.0 0.00 0.06 0.06 83 1010.7
20260507010931 67 256 0.0 6.0 0.00 0.06 0.06 83 1009.9
20260507010524 67 245 1.0 3.0 0.00 0.06 0.06 83 1011.0
20260507010426 67 259 3.0 3.0 0.00 0.06 0.06 83 1009.8
20260507010003 67 237 1.0 3.0 0.00 0.06 0.06 83 1010.6
20260507005924 67 244 0.0 1.0 0.00 0.06 0.06 83 1010.0
20260507005503 67 237 1.0 3.0 0.00 0.06 0.06 83 1010.9
20260507005421 67 250 0.0 3.0 0.00 0.06 0.06 83 1010.0
20260507005003 67 240 0.0 2.0 0.00 0.06 0.06 82 1010.7
20260507004917 67 222 1.0 2.0 0.00 0.06 0.06 82 1010.1
20260507004524 67 243 0.0 2.0 0.00 0.06 0.06 82 1010.8
20260507004414 67 258 0.0 0.0 0.00 0.06 0.06 82 1010.2
20260507004003 67 234 0.0 2.0 0.00 0.06 0.06 82 1010.8
20260507003911 67 237 0.0 0.0 0.00 0.06 0.06 82 1010.2
20260507003503 67 243 1.0 3.0 0.00 0.06 0.06 82 1010.8
20260507003406 68 217 0.0 0.0 0.00 0.06 0.06 82 1010.0
20260507003003 67 242 1.0 3.0 0.00 0.06 0.06 82 1010.4
20260507002902 68 242 3.0 3.0 0.00 0.06 0.06 82 1009.8
20260507002503 67 241 1.0 3.0 0.00 0.06 0.06 82 1010.8
20260507002358 68 242 0.0 2.0 0.00 0.06 0.06 81 1009.9
20260507002003 67 241 0.0 2.0 0.00 0.06 0.06 81 1010.6
20260507001856 68 249 0.0 2.0 0.00 0.06 0.06 81 1009.3
20260507001503 67 242 0.0 2.0 0.00 0.06 0.06 81 1010.3
20260507001352 68 248 0.0 1.0 0.00 0.06 0.06 81 1009.4
20260507001003 68 243 0.0 2.0 0.00 0.06 0.06 81 1010.3
20260507000849 68 256 1.0 2.0 0.00 0.06 0.06 81 1009.3
20260507000503 68 242 0.0 2.0 0.00 0.06 0.06 80 1010.2
20260507000344 68 231 1.0 2.0 0.00 0.06 0.06 80 1009.2
20260507000003 68 247 0.0 2.0 0.00 0.06 0.06 80 1010.2
20260506235841 68 253 1.0 2.0 0.00 0.06 0.06 80 1009.3
20260506235503 68 250 1.0 4.0 0.00 0.06 0.06 80 1010.3
20260506235338 68 241 0.0 2.0 0.00 0.06 0.06 80 1009.3
20260506235024 68 248 2.0 8.0 0.00 0.06 0.06 80 1010.1
20260506234834 68 258 2.0 5.0 0.00 0.06 0.06 79 1009.7
20260506234503 68 235 2.0 8.0 0.00 0.06 0.06 79 1010.0
20260506234332 68 248 3.0 3.0 0.00 0.06 0.06 79 1009.2
20260506234003 68 235 1.0 6.0 0.00 0.06 0.06 79 1009.9
20260506233829 69 245 1.0 3.0 0.00 0.06 0.06 79 1009.3
20260506233503 69 252 1.0 6.0 0.00 0.06 0.06 79 1010.2
20260506233325 69 250 0.0 2.0 0.00 0.06 0.06 79 1009.5
20260506233003 69 250 1.0 6.0 0.00 0.06 0.06 79 1010.2
20260506232822 69 258 0.0 2.0 0.00 0.06 0.06 79 1009.4
20260506232503 69 252 2.0 7.0 0.00 0.06 0.06 79 1009.9
20260506232317 69 242 1.0 2.0 0.00 0.06 0.06 79 1009.4
20260506232003 69 253 2.0 7.0 0.00 0.06 0.06 79 1010.3
20260506231814 69 235 4.0 6.0 0.00 0.06 0.06 78 1009.4
20260506231503 69 252 2.0 7.0 0.00 0.06 0.06 78 1009.9
20260506231312 69 267 2.0 5.0 0.00 0.06 0.06 78 1009.5
20260506231024 69 248 1.0 4.0 0.00 0.06 0.06 78 1009.8
20260506230809 69 222 2.0 5.0 0.00 0.06 0.06 78 1009.1
20260506230503 69 250 1.0 4.0 0.00 0.06 0.06 78 1010.1
20260506230306 69 261 0.0 0.0 0.00 0.06 0.06 78 1009.1
20260506230003 69 249 2.0 4.0 0.00 0.06 0.06 78 1009.9
20260506225802 69 244 1.0 5.0 0.00 0.06 0.06 78 1008.9
20260506225503 69 236 3.0 8.0 0.00 0.06 0.06 78 1010.0
20260506225259 69 250 2.0 5.0 0.00 0.06 0.06 78 1009.1
20260506225003 69 233 3.0 9.0 0.00 0.06 0.06 77 1010.1
20260506224756 69 238 7.0 8.0 0.00 0.06 0.06 77 1009.1
20260506224503 69 243 3.0 10.0 0.00 0.06 0.06 77 1010.1
20260506224254 69 244 7.0 9.0 0.00 0.06 0.06 77 1009.4
20260506224003 69 251 2.0 10.0 0.00 0.06 0.06 77 1010.2
20260506223750 70 260 3.0 10.0 0.00 0.06 0.06 77 1009.1
20260506223503 70 245 2.0 14.0 0.00 0.06 0.06 78 1010.3
20260506223246 70 248 0.0 2.0 0.00 0.06 0.06 77 1009.4
20260506223003 70 246 3.0 14.0 0.00 0.06 0.06 77 1010.0
20260506222743 70 240 5.0 14.0 0.00 0.06 0.06 77 1009.3
20260506222503 70 250 2.0 7.0 0.00 0.06 0.06 77 1010.1
20260506222238 70 236 4.0 7.0 0.00 0.06 0.06 77 1009.1
20260506222003 70 240 2.0 6.0 0.00 0.06 0.06 77 1010.0
20260506221736 71 286 4.0 6.0 0.00 0.06 0.06 76 1008.9
20260506221504 71 232 2.0 6.0 0.00 0.06 0.06 76 1009.8
20260506221234 71 162 3.0 6.0 0.00 0.06 0.06 75 1008.8
20260506221003 71 243 2.0 6.0 0.00 0.06 0.06 75 1009.8
20260506220726 71 247 4.0 6.0 0.00 0.06 0.06 75 1008.9
20260506220503 71 244 2.0 11.0 0.00 0.06 0.06 75 1009.7
20260506220225 71 251 1.0 2.0 0.00 0.06 0.06 75 1009.0
20260506220003 71 245 4.0 14.0 0.00 0.06 0.06 74 1009.8
20260506215723 71 270 3.0 11.0 0.00 0.06 0.06 75 1008.8
20260506215503 71 250 5.0 15.0 0.00 0.06 0.06 75 1009.4
20260506215218 71 239 6.0 14.0 0.00 0.06 0.06 75 1009.1